Location: Congrier
(47.8099°N, 1.1170°W)
Time: 16:08:49
(UTC+00:00)

CZ-4C R/B - Pass Details

Date: 28 January 2023
Orbit: 456 x 612 km, 98.1° (Epoch: 25 March)

Event Time Altitude Azimuth Distance (km) Brightness Sun altitude
Exits shadow 18:57:42 -1° 7° (N) 2,872 6.9 -20.0°
Rises 18:57:53 0° 7° (N) 2,793 6.8 -20.0°
Reaches altitude 10° 19:00:11 10° 360° (N) 1,864 6.0 -20.4°
Maximum altitude 19:03:55 38° 292° (WNW) 836 4.7 -21.0°
Drops below altitude 10° 19:07:28 10° 223° (SW) 1,759 6.5 -21.6°
Sets 19:09:35 0° 215° (SW) 2,614 7.3 -22.0°
